OBJECT E, 62085

Orbit data source: Space-Track

You're viewing an Uncataloged Satellite

Recently launched and/or uncataloged satellites may have evolving metadata. Metadata may include but not limited to: Owner, Maufacturer, Bus, Motor, and Mission.

OBJECT E, 62085 is a satellite in SSO that was launched on Mon, 25 Nov 2024 UTC via an ELECTRON launch vehicle from the Rocket Lab Launch Complex (RLLC). Unknown objects in Earth's orbit typically refer to objects detected orbiting the Earth but have not yet been identified or cataloged. These objects could be anything from previously untracked satellites, spent rocket stages, debris from satellite collisions, or even natural meteoroids temporarily captured by Earth's gravity.

Loading next visibility...
OBJECT E details
Identifier
62085, 2024-219E
Orbit
SSO
Last TLE update5 hours ago
Origin
Flag of TBDKINEIS (TBD)
ManufacturerKINEIS
MissionOperational spacecraft
Bus & MotorCUBESAT 16U, Unknown motor
Mass28 kg wet, 28 kg dry
Launch date (UTC)
2024-11-25 (3 weeks ago)
Launch vehicle
ELECTRON
Launch site
Rocket Lab Launch Complex (RLLC)
Object typeUnknown
Shape & HBRUnknown
Radar Cross SectionMedium (>0.1 m² and <1 m²)

Expand to show TLE details & history

TLE from 5 hours ago
0 OBJECT E
1 62085U 24219E   24348.74696483  .00001560  00000-0  22524-3 0  9997
2 62085  97.9499 147.4459 0001247 223.0236 137.0877 14.77632841  2734
Epoch: 2024-12-13T17:55Z
Definitive object data (Epoch: 2024-12-13T17:55:37.761Z)
Latitude-0.00003°
Longitude155.63005°
Altitude640.464 km
Speed7.537 km/s
True Right ascension09h 49m 47s
True Declination0° 00' 00"
Sunlit
Object was in daylight at TLE epoch
Visualization TLE readout
Latitude53.6006°
Longitude144.98131°
Altitude646.463 km
Speed7.539 km/s
Apparent Right ascension09h 22m 06s
Apparent Declination9° 46' 14"
Sunlit
Object is in full shadow
Visualization observer readout
Local Sidereal Time21:34:50
Azimuth4.107° NNE
Elevation-40.226°
Doppler factor1
Orbital elements
Apogee altitude634.727 km
Perigee altitude632.978 km
Semi-major axis7,011.989 km
Eccentricity0.0001247
Inclination97.9499°
RAAN147.4459°
Arg. of periapsis223.0236°
True anomaly137.09743°
Mean anomaly137.0877°
Eccentric anomaly137.09256°
Mean motion3.69642 °/min
BSTAR0.00022524
Orbital period97.39 mins
Loading maneuver chart data...
Loading historical data...
Loading historical data...
Loading historical data...
Loading historical data...
Loading historical data...
Loading historical data...
Loading historical data...

OBJECT E Visibility forecast

Observer location: undefined°, undefined

Span
Click to sort rows by Start time (UTC) header in descending order
Start Az.
Max El. time (UTC)
Max El. Az.
Max El.
End time (UTC)
End Az.
7 mins2024-12-13 23:22:49.985Z25.84° NE2024-12-13 23:25:49.985Z81.624° E38.562°2024-12-13 23:29:49.985Z176.112° S
6 mins2024-12-14 10:19:49.985Z128.283° SE2024-12-14 10:21:49.985Z81.248° E33.375°2024-12-14 10:25:49.985Z3.786° NNE
|